FW9701 Weather Reports


Display with metric or nautical units.
time (UTC)temp
F
wind
direction
speed
MPH
gust
MPH
rain 1hr
in
rain 24hr
in
rain mn
in
humidity
%
barometer
mb
20260504185012 62 336 13.0 21.0 0.00 0.00 0.00 40 1005.3
20260504184528 62 335 11.0 21.0 0.00 0.00 0.00 39 1005.2
20260504184012 63 352 13.0 24.0 0.00 0.00 0.00 39 1005.2
20260504183514 63 323 14.0 24.0 0.00 0.00 0.00 41 1005.1
20260504183030 62 343 14.0 24.0 0.00 0.00 0.00 38 1005.2
20260504182508 62 338 14.0 23.0 0.00 0.00 0.00 40 1005.0
20260504182012 63 333 11.0 23.0 0.00 0.00 0.00 38 1004.9
20260504181529 64 332 14.0 23.0 0.00 0.00 0.00 37 1005.0
20260504181012 64 333 12.0 20.0 0.00 0.00 0.00 39 1004.7
20260504180514 63 325 13.0 21.0 0.00 0.00 0.00 38 1004.8
20260504180030 63 328 11.0 21.0 0.00 0.00 0.00 40 1004.8
20260504175511 62 352 12.0 21.0 0.00 0.00 0.00 39 1004.7
20260504175011 62 359 11.0 23.0 0.00 0.00 0.00 38 1004.7
20260504174526 62 351 13.0 23.0 0.00 0.00 0.00 38 1004.8
20260504174009 63 343 13.0 23.0 0.00 0.00 0.00 37 1004.7
20260504173509 63 335 15.0 26.0 0.00 0.00 0.00 36 1004.6
20260504173027 63 11 12.0 26.0 0.00 0.00 0.00 37 1004.4
20260504172507 64 330 14.0 20.0 0.00 0.00 0.00 36 1004.5
20260504172011 63 340 10.0 23.0 0.00 0.00 0.00 39 1004.4
20260504171539 63 321 13.0 23.0 0.00 0.00 0.00 37 1004.5
20260504171010 63 352 11.0 23.0 0.00 0.00 0.00 37 1004.5
20260504170511 63 347 13.0 22.0 0.00 0.00 0.00 38 1004.4
20260504151008 59 356 11.0 20.0 0.00 0.00 0.00 45 1003.1
20260504150512 60 359 10.0 18.0 0.00 0.00 0.00 44 1003.1
20260504141011 59 341 9.0 16.0 0.00 0.00 0.00 54 1002.5
20260504140510 59 18 10.0 15.0 0.00 0.00 0.00 55 1002.3
20260504130511 55 304 8.0 16.0 0.00 0.00 0.00 64 1001.7
20260504110509 55 224 3.0 8.0 0.00 0.00 0.00 57 1000.2
20260504100511 57 240 5.0 10.0 0.00 0.00 0.00 55 1000.9
20260504082007 57 255 5.0 13.0 0.00 0.00 0.00 48 1001.7
20260504081530 57 206 6.0 13.0 0.00 0.00 0.00 47 1001.9
20260504081008 56 252 6.0 10.0 0.00 0.00 0.00 48 1001.9
20260504080507 56 184 4.0 9.0 0.00 0.00 0.00 49 1002.1
20260504050507 52 0 0.0 0.0 0.00 0.00 0.00 57 1004.4
20260504045511 53 0 0.0 0.0 0.00 0.00 0.00 53 1004.4
20260504045008 53 0 0.0 0.0 0.00 0.00 0.00 54 1004.5
20260504044532 53 0 0.0 0.0 0.00 0.00 0.00 55 1004.5
20260504044009 53 0 0.0 0.0 0.00 0.00 0.00 52 1004.5
20260504043507 53 0 0.0 0.0 0.00 0.00 0.00 53 1004.6
20260504043027 53 0 0.0 0.0 0.00 0.00 0.00 54 1004.7
20260504042507 53 0 0.0 0.0 0.00 0.00 0.00 54 1004.8
20260504042007 54 0 0.0 0.0 0.00 0.00 0.00 52 1004.8
20260504041530 54 0 0.0 0.0 0.00 0.00 0.00 53 1005.0
20260504041011 55 0 0.0 0.0 0.00 0.00 0.00 51 1005.1
20260504040507 56 0 0.0 0.0 0.00 0.00 0.00 49 1005.2
20260504040029 57 0 0.0 1.0 0.00 0.00 0.00 47 1005.3
20260504035508 58 0 0.0 1.0 0.00 0.00 0.00 46 1005.3
20260504035008 58 0 0.0 0.0 0.00 0.00 0.00 46 1005.4
20260504034529 58 0 0.0 0.0 0.00 0.00 0.00 46 1005.5
20260504034007 58 0 0.0 2.0 0.00 0.00 0.00 46 1005.5
20260504033508 58 0 0.0 2.0 0.00 0.00 0.00 46 1005.6
20260504033028 58 234 0.0 1.0 0.00 0.00 0.00 46 1005.7
20260504032507 57 0 0.0 1.0 0.00 0.00 0.00 48 1005.8
20260504032012 57 0 0.0 0.0 0.00 0.00 0.00 48 1006.0
20260504031527 58 0 0.0 0.0 0.00 0.00 0.00 49 1006.1
20260504031007 58 0 0.0 0.0 0.00 0.00 0.00 47 1006.1
20260504030510 59 0 0.0 0.0 0.00 0.00 0.00 46 1006.1
20260504030039 59 0 0.0 0.0 0.00 0.00 0.00 46 1006.1
20260504025509 59 0 0.0 0.0 0.00 0.00 0.00 47 1006.2
20260504025010 60 0 0.0 0.0 0.00 0.00 0.00 44 1006.3
20260504024530 61 0 0.0 0.0 0.00 0.00 0.00 43 1006.3
20260504024010 62 0 0.0 0.0 0.00 0.00 0.00 43 1006.3
20260504023510 63 0 0.0 1.0 0.00 0.00 0.00 40 1006.3
20260504023031 63 0 0.0 2.0 0.00 0.00 0.00 39 1006.2
20260504022508 64 230 0.0 2.0 0.00 0.00 0.00 39 1006.3
20260504022011 64 264 0.0 2.0 0.00 0.00 0.00 39 1006.3
20260504021531 64 259 0.0 2.0 0.00 0.00 0.00 39 1006.4
20260504021008 64 220 0.0 2.0 0.00 0.00 0.00 38 1006.3
20260504020508 65 0 0.0 3.0 0.00 0.00 0.00 38 1006.2
20260504020026 65 240 1.0 3.0 0.00 0.00 0.00 38 1006.2
20260504015508 65 245 0.0 3.0 0.00 0.00 0.00 38 1006.2
20260504015011 65 0 0.0 4.0 0.00 0.00 0.00 37 1006.4
20260504014529 66 0 1.0 4.0 0.00 0.00 0.00 37 1006.4
20260504014011 66 45 0.0 4.0 0.00 0.00 0.00 36 1006.5
20260504013509 67 213 0.0 3.0 0.00 0.00 0.00 36 1006.4
20260504013029 67 240 0.0 3.0 0.00 0.00 0.00 35 1006.5
20260504012515 67 260 1.0 3.0 0.00 0.00 0.00 35 1006.5
20260504012017 67 260 1.0 6.0 0.00 0.00 0.00 35 1006.5
20260504011526 68 340 0.0 6.0 0.00 0.00 0.00 35 1006.5
20260504011008 68 246 2.0 6.0 0.00 0.00 0.00 34 1006.5
20260504010514 68 261 1.0 5.0 0.00 0.00 0.00 34 1006.5
20260504010026 68 221 1.0 5.0 0.00 0.00 0.00 35 1006.6
20260504005509 69 250 2.0 8.0 0.00 0.00 0.00 34 1006.6
20260504005007 69 264 2.0 9.0 0.00 0.00 0.00 34 1006.7
20260504004528 69 20 1.0 9.0 0.00 0.00 0.00 33 1006.7
20260504004011 69 297 2.0 11.0 0.00 0.00 0.00 33 1006.6
20260504003511 69 179 3.0 11.0 0.00 0.00 0.00 33 1006.6
20260504003030 69 322 5.0 10.0 0.00 0.00 0.00 34 1006.6
20260504002509 69 321 4.0 8.0 0.00 0.00 0.00 34 1006.5
20260504002010 70 316 3.0 8.0 0.00 0.00 0.00 32 1006.6
20260504001529 70 330 3.0 8.0 0.00 0.00 0.00 33 1006.7
20260504001008 70 333 2.0 7.0 0.00 0.00 0.00 34 1006.8
20260504000510 70 224 3.0 8.0 0.00 0.00 0.00 34 1006.7
20260504000030 70 250 4.0 10.0 0.00 0.00 0.00 33 1006.9
20260503235507 70 257 3.0 10.0 0.00 0.00 0.00 33 1006.9
20260503235007 70 186 4.0 10.0 0.00 0.00 0.00 34 1007.0
20260503234542 70 327 3.0 10.0 0.00 0.00 0.00 33 1007.0
20260503234011 70 326 4.0 10.0 0.00 0.00 0.00 34 1007.1
20260503233509 71 329 3.0 14.0 0.00 0.00 0.00 31 1007.1
20260503233026 71 256 3.0 14.0 0.00 0.00 0.00 32 1007.2
20260503232510 71 237 2.0 8.0 0.00 0.00 0.00 32 1007.3
20260503232010 71 15 3.0 8.0 0.00 0.00 0.00 31 1007.3
20260503231530 71 259 3.0 11.0 0.00 0.00 0.00 31 1007.4
20260503231013 71 236 3.0 11.0 0.00 0.00 0.00 32 1007.4
20260503230512 71 62 4.0 10.0 0.00 0.00 0.00 30 1007.4
20260503230030 71 311 3.0 9.0 0.00 0.00 0.00 32 1007.6
20260503225512 71 336 5.0 10.0 0.00 0.00 0.00 31 1007.6
20260503225012 71 223 3.0 10.0 0.00 0.00 0.00 32 1007.6
20260503224527 71 323 5.0 9.0 0.00 0.00 0.00 31 1007.7
20260503224007 71 356 3.0 9.0 0.00 0.00 0.00 33 1007.7
20260503223514 72 342 4.0 8.0 0.00 0.00 0.00 32 1007.8
20260503223028 72 314 3.0 10.0 0.00 0.00 0.00 35 1007.9
20260503222509 72 335 4.0 10.0 0.00 0.00 0.00 32 1007.9
20260503222011 71 331 0.0 13.0 0.00 0.00 0.00 33 1008.0
20260503221528 71 348 6.0 15.0 0.00 0.00 0.00 32 1008.0
20260503221013 71 356 6.0 15.0 0.00 0.00 0.00 32 1008.0
20260503220510 72 302 4.0 9.0 0.00 0.00 0.00 32 1008.1
20260503220042 71 37 3.0 12.0 0.00 0.00 0.00 34 1008.2
20260503215509 71 2 5.0 12.0 0.00 0.00 0.00 31 1008.2
20260503215010 71 8 6.0 12.0 0.00 0.00 0.00 32 1008.2
20260503214530 71 336 6.0 13.0 0.00 0.00 0.00 34 1008.3
20260503214011 71 320 7.0 13.0 0.00 0.00 0.00 33 1008.3
20260503213514 72 334 2.0 11.0 0.00 0.00 0.00 34 1008.5
20260503213029 72 196 3.0 14.0 0.00 0.00 0.00 35 1008.4
20260503212511 71 294 6.0 14.0 0.00 0.00 0.00 34 1008.6
20260503212015 71 314 3.0 9.0 0.00 0.00 0.00 36 1008.6
20260503211528 71 313 5.0 10.0 0.00 0.00 0.00 34 1008.8
20260503211015 71 301 5.0 11.0 0.00 0.00 0.00 33 1008.8
20260503210510 71 317 2.0 11.0 0.00 0.00 0.00 35 1008.9
20260503210028 71 326 6.0 12.0 0.00 0.00 0.00 35 1008.9
20260503205511 71 335 6.0 12.0 0.00 0.00 0.00 35 1009.0
20260503205011 71 309 4.0 17.0 0.00 0.00 0.00 34 1009.1
20260503204528 70 299 9.0 17.0 0.00 0.00 0.00 33 1009.2
20260503204014 71 329 7.0 11.0 0.00 0.00 0.00 34 1009.2
20260503203510 70 327 4.0 13.0 0.00 0.00 0.00 37 1009.3
20260503203031 70 352 7.0 13.0 0.00 0.00 0.00 34 1009.5
20260503202512 70 326 7.0 15.0 0.00 0.00 0.00 33 1009.5
20260503202011 71 283 6.0 15.0 0.00 0.00 0.00 36 1009.5
20260503201530 71 1 8.0 15.0 0.00 0.00 0.00 37 1009.5
20260503201011 70 30 6.0 15.0 0.00 0.00 0.00 37 1009.7
20260503200510 70 329 6.0 12.0 0.00 0.00 0.00 37 1009.7
20260503200028 70 333 5.0 17.0 0.00 0.00 0.00 37 1009.8
20260503195512 70 300 8.0 17.0 0.00 0.00 0.00 37 1009.8
20260503195012 70 324 6.0 12.0 0.00 0.00 0.00 36 1009.8
20260503194528 70 325 7.0 12.0 0.00 0.00 0.00 36 1009.8
20260503194007 70 352 8.0 12.0 0.00 0.00 0.00 35 1009.8
20260503193513 70 292 4.0 15.0 0.00 0.00 0.00 37 1009.8
20260503193033 70 352 7.0 15.0 0.00 0.00 0.00 36 1010.0
20260503192506 69 327 8.0 15.0 0.00 0.00 0.00 35 1010.0
20260503192010 69 8 7.0 14.0 0.00 0.00 0.00 34 1010.0
20260503191527 69 293 8.0 16.0 0.00 0.00 0.00 36 1010.2
20260503191009 69 332 8.0 16.0 0.00 0.00 0.00 38 1010.2
20260503190508 69 330 9.0 16.0 0.00 0.00 0.00 35 1010.2
20260503190030 70 340 8.0 18.0 0.00 0.00 0.00 36 1010.3
20260503185510 70 322 5.0 18.0 0.00 0.00 0.00 37 1010.3